Regional Weather Roundup
Issued by NWS San Diego, CA

Home | Current Version | Previous Version | Text Only | Print | Product List | Glossary On
Versions: 1 2 3 4 5 6 7 8 9 10 11 12 13 14 15 16 17 18 19 20 21 22 23 24 25 26 27 28 29 30 31 32 33 34 35 36 37 38 39 40 41 42 43 44 45 46 47 48 49 50
000
ASUS46 KSGX 020111
RWRSGX

SAN DIEGO HOURLY WEATHER ROUNDUP
NATIONAL WEATHER SERVICE SAN DIEGO CA
600 PM PDT SAT AUG 01 2015

NOTE: "FAIR" INDICATES FEW OR NO CLOUDS BELOW 12,000 FEET WITH NO
SIGNIFICANT WEATHER AND/OR OBSTRUCTIONS TO VISIBILITY.

CAZ042-043-060-061-PZZ750-775-020200-

GREATER SAN DIEGO AREA

CITY           SKY/WX    TMP DP  RH WIND       PRES   REMARKS
LINDBERGH FLD  MOSUNNY   74  61  63 NW8       29.92F
POINT LOMA       N/A     72  61  67 W12         N/A
NATIONAL CITY    N/A     74  65  72 W6        29.91F
CHULA VISTA      N/A     73  66  77 W8        29.84F
IMPERIAL BEACH SUNNY    N/A N/A N/A W10       29.91F
BROWN FIELD    SUNNY     73  63  70 W9        29.91F
MIRAMAR MCAS   MOSUNNY   76  61  59 W8        29.91F
MONTGOMERY FLD SUNNY     75  62  64 W7        29.91F

$$

NORTH SAN DIEGO COUNTY

CITY           SKY/WX    TMP DP  RH WIND       PRES   REMARKS
CAMP PENDLETON MOSUNNY   75  62  64 SW9       29.89F
OCEANSIDE AP   MOSUNNY   74  63  68 W8        29.89F
VISTA            N/A     75  66  71 SW6       29.88F
CARLSBAD       MOSUNNY   71  63  75 W6        29.90F
DEL MAR          N/A     73  65  76 CALM      29.92F
FALLBROOK        N/A     77  66  68 S5        29.87F
ESCONDIDO        N/A     79  65  62 NW6       29.91S
POWAY            N/A     78  65  63 W8        29.89F

$$

EAST SAN DIEGO COUNTY

CITY           SKY/WX    TMP DP  RH WIND       PRES   REMARKS
RAMONA         MOSUNNY   79  63  57 NW12      29.92F
SANTEE LAKES     N/A     77  65  66 W6        29.88F
LA MESA          N/A     76  64  66 CALM      29.83F
JAMUL            N/A     79  65  62 NW3       29.88F
DESCANSO N       N/A     82  63  52 CALM      29.73F
CAMPO            N/A     86  60  41 S12       29.92F

$$

ORANGE COUNTY AND THE LOS ANGELES BASIN

CITY           SKY/WX    TMP DP  RH WIND       PRES   REMARKS
JOHN WAYNE AP  MOSUNNY   75  64  68 SW8       29.89F
LAKE FOREST FR   N/A     83  62  48 SW2       29.78
SANTA ANA        N/A     81  66  60 SW1       29.84S
HUNTINGTON BCH   N/A     75  68  77 SW2       29.91F
LOS ALAMITOS   FAIR      78  62  58 S10       29.88F
FULLERTON      SUNNY     79  63  57 S9        29.87F
LONG BEACH     SUNNY     81  61  50 NW8       29.88S
L.A. AP        MOSUNNY   73  65  75 W13       29.89F
L.A. DOWNTOWN  SUNNY     78  64  61 VRB3      29.87F

$$

THE INLAND EMPIRE

CITY           SKY/WX    TMP DP  RH WIND       PRES   REMARKS
CORONA         MOSUNNY   84  63  49 NW18      29.87R
CHINO          MOSUNNY   86  61  42 W14       29.88S
ONTARIO        PTSUNNY   87  61  41 W14G21    29.88S
SAN BERNARDINO MOSUNNY   88  55  33 W14       29.88S
RIVERSIDE AP   MOSUNNY   88  60  38 W9G20     29.87F
MORENO VALLEY    N/A     88  65  46 SW5       29.87F
MARCH ARB      MOSUNNY   87  59  39 NW10      29.90S
HORSETHIEF CYN   N/A     89  56  32 NW9       29.87F
PERRIS           N/A     88  60  39 W6        29.90F
MENIFEE          N/A     90  62  38 SE9       29.93S
HEMET EAST       N/A     87  56  34 CALM      29.87F
FRENCH VALLEY  FAIR      81  61  50 SW7       29.91S
TEMECULA         N/A     81  64  57 SW6       29.85S

$$

SAN BERNARDINO AND RIVERSIDE COUNTY MOUNTAINS

CITY           SKY/WX    TMP DP  RH WIND       PRES   REMARKS
BIG BEAR AP    MOSUNNY   73  37  27 W9        30.25S
PINE COVE        N/A     71  55  56 W1        29.84F

$$

SOUTHERN DESERT INCLUDING THE COACHELLA VALLEY

CITY           SKY/WX    TMP DP  RH WIND       PRES   REMARKS
PALM SPRINGS   MOSUNNY  109  47  12 NW18G28   29.74F HX 105
THOUSAND PALMS   N/A    108  46  12 SW3       29.70F HX 104
THERMAL        PTSUNNY  106  44  12 SE7       29.67F HX 101
BLYTHE         MOSUNNY  102  57  22 E13       29.74F HX 101
IMPERIAL AP    MOSUNNY  107  50  15 NE3       29.68F HX 104
EL CENTRO NAS  MOSUNNY  109  44  11 E3        29.70F HX 104
YUMA AZ        SUNNY    110  49  13 VRB6      29.70F HX 106
MEXICALI       MOSUNNY  108  46  12 SW5       29.70F HX 103

$$

UPPER DESERT

CITY           SKY/WX    TMP DP  RH WIND       PRES   REMARKS
VICTORVILLE AP MOSUNNY   97  36  11 S16       29.94S
HESPERIA         N/A     91  43  18 SW9       29.90F
APPLE VALLEY     N/A     92  37  14 S14G26    29.97S
PALMDALE       MOSUNNY   95  41  15 SW20G28   29.92F
LANCASTER      SUNNY     94  47  20 SW20G31   29.92S
EDWARDS AFB    PTSUNNY   97  37  12 SW21      29.88R
DAGGETT        PTSUNNY  104  43  12 E18G31    29.84F HX  99
29 PALMS N     PTSUNNY   98  52  21 E10       29.92F HX  95
NEEDLES        MOSUNNY   98  55  23 N8        29.81F HX  96

$$

REGIONAL REPORTS

CITY           SKY/WX    TMP DP  RH WIND       PRES   REMARKS
SANTA BARBARA  SUNNY     78  60  53 W7        29.88F
SANDBERG       SUNNY     86  33  15 S12       30.12F
LAS VEGAS NV   CLOUDY    84  57  39 NW9       29.92F
PHOENIX AZ     MOSUNNY  103  56  21 N8        29.74F HX 102
TIJUANA        MOSUNNY   73  59  60 W14       29.93F
ENSENADA NW      N/A     71  32  24 W12       29.88F

$$

OFFSHORE ISLANDS

CITY           SKY/WX    TMP DP  RH WIND       PRES   REMARKS
CATALINA ARPT  SUNNY     67  61  81 SW12      29.95F
SAN NICOLAS IS SUNNY    N/A N/A N/A NW24G32   29.92S

$$

MARINE AND OFFSHORE BUOY REPORTS

STATION/POSITION SKY/WX   TEMP    WIND        PRES    SWELL
                          AIR SEA DIR/SP/G            HT/PER/DIR
                          (F)     (DEG/KT/KT) (MB)    (FT/S/D)
TANNER BANKS               66 68  300/ 17/ 19 1013.3F   2/330/15
S CLEMENTE BASIN           67 70  290/ 12/ 14 1012.7F   2/ 70/15
SAN NICOLAS IS.               66                N/A     2/230/13
SO. S. ROSA ISLA           66 69  310/ 21/ 25 1012.2F   2/13
W. S. BARBARA CH           65 65  310/ 21/ 23 1012.4F   2/250/15
M. S. BARBARA CH           67 71  270/ 16/ 19 1013.1F
S. MONICA BASIN            69 74  270/ 10/ 12 1012.3F   2/250/13
S PEDRO CHANNEL               72                N/A
DANA POINT                    73                N/A     2/200/14
OCEANSIDE OFFSHR              73                N/A     2/200/14
TORREY PINES OTR              74                N/A     2/220/14
LA JOLLA 1                 71 72  280/  5/  7 1013.0F
MISSION BAY BUOY              73                N/A     2/200/14
SAN DIEGO BAY                 76              1013.6F
POINT LOMA SOUTH              72                N/A     2/210/14

$$




USA.gov is the U.S. government's official web portal to all federal, state and local government web resources and services.